Weather History for Troy, AL

Change the Weather History Date:

Thursday, November 22, 2012

  Actual Average Record
Temperature  
Mean Temperature 56 °F 54 °F  
Max Temperature 74 °F 67 °F 78 °F (2010)
Min Temperature 37 °F 41 °F 21 °F (2000)
Degree Days  
Heating Degree Days 9 12  
Month to date heating degree days 250 192  
Since 1 July heating degree days 341 290  
Growing Degree Days 5 (Base 50)    
Moisture  
Dew Point 42 °F    
Average Humidity 67    
Maximum Humidity 100    
Minimum Humidity 33    
Precipitation  
Precipitation 0.00 in 0.17 in 0.63 in (2007)
Month to date precipitation 0.93 3.16  
Year to date precipitation 50.96 48.30  
Snow  
Snow 0.00 in - - ()
Month to date snowfall 0.0  
Since 1 July snowfall 0.0  
Since 1 September snowfall 0.0  
Snow Depth 0.00 in    
Sea Level Pressure  
Sea Level Pressure 30.20 in    
Wind  
Wind Speed 1 mph (South)    
Max Wind Speed 5 mph    
Max Gust Speed 6 mph    
Visibility 9 miles    
Events      
T = Trace of Precipitation, MM = Missing Value Source: NWS Daily Summary

Daily Weather History Graph

Daily Weather History Graph

Search for Another Location

Airport:

Trip Planner

Search our weather history database for the weather conditions in past years. The results will help you decide how hot, cold, wet, or windy it might be!

Date:

Astronomy

Nov. 22, 2012 Rise Set
Actual Time 6:19 AM CST 4:41 PM CST
Civil Twilight 5:52 AM CST 5:07 PM CST
Nautical Twilight 5:23 AM CST 5:37 PM CST
Astronomical Twilight 4:53 AM CST 6:06 PM CST
Moon 1:10 PM CST (11/22) 12:56 AM CST (11/22)
Length of Visible Light 11h 14m
Length of Day
10h 22m
Waxing Gibbous, 71% of the Moon is Illuminated
Nov 22
Waxing Gibbous
Nov 28
Full
Dec 6
Last Quarter
Dec 13
New
Dec 19
First Quarter

Hourly Weather History & Observations

Time (CST) Temp. Dew Point Humidity Pressure Visibility Wind Dir Wind Speed Gust Speed Precip Events Conditions
12:53 AM 43.0 °F 39.9 °F 89% 30.18 in 9.0 mi Calm Calm - N/A   Clear
1:53 AM 42.1 °F 39.0 °F 89% 30.17 in 8.0 mi Calm Calm - N/A   Clear
2:53 AM 39.0 °F 37.9 °F 96% 30.17 in 6.0 mi Calm Calm - N/A   Clear
3:53 AM 39.0 °F 37.0 °F 93% 30.18 in 7.0 mi Calm Calm - N/A   Clear
4:53 AM 37.9 °F 36.0 °F 93% 30.20 in 8.0 mi Calm Calm - N/A   Clear
5:53 AM 37.9 °F 36.0 °F 93% 30.21 in 9.0 mi Calm Calm - N/A   Clear
6:53 AM 37.9 °F 37.0 °F 97% 30.22 in 6.0 mi Calm Calm - N/A   Clear
7:53 AM 46.0 °F 43.0 °F 89% 30.25 in 7.0 mi Calm Calm - N/A   Clear
8:53 AM 57.0 °F 48.0 °F 72% 30.26 in 10.0 mi Calm Calm - N/A   Clear
9:53 AM 64.0 °F 46.0 °F 52% 30.26 in 10.0 mi Variable 3.5 mph - N/A   Clear
10:53 AM 69.1 °F 44.1 °F 40% 30.25 in 10.0 mi Calm Calm - N/A   Clear
11:53 AM 70.0 °F 43.0 °F 38% 30.21 in 10.0 mi SSE 4.6 mph - N/A   Clear
12:53 PM 72.0 °F 43.0 °F 35% 30.19 in 10.0 mi Variable 3.5 mph - N/A   Clear
1:53 PM 73.0 °F 43.0 °F 34% 30.17 in 10.0 mi Variable 3.5 mph - N/A   Clear
2:53 PM 72.0 °F 42.1 °F 34% 30.17 in 10.0 mi SSW 3.5 mph - N/A   Clear
3:53 PM 70.0 °F 43.0 °F 38% 30.17 in 10.0 mi SSW 3.5 mph - N/A   Clear
4:53 PM 63.0 °F 46.0 °F 54% 30.18 in 10.0 mi Calm Calm - N/A   Unknown
5:53 PM 55.0 °F 46.0 °F 72% 30.19 in 10.0 mi Calm Calm - N/A   Clear
6:53 PM 51.1 °F 45.0 °F 80% 30.20 in 10.0 mi Calm Calm - N/A   Clear
7:53 PM 48.0 °F 44.1 °F 86% 30.21 in 10.0 mi Calm Calm - N/A   Clear
8:53 PM 48.0 °F 44.1 °F 86% 30.21 in 10.0 mi Calm Calm - N/A   Clear
9:53 PM 46.0 °F 43.0 °F 89% 30.21 in 10.0 mi Calm Calm - N/A   Clear
10:53 PM 45.0 °F 42.1 °F 90% 30.21 in 9.0 mi Calm Calm - N/A   Clear
11:53 PM 45.0 °F 42.1 °F 90% 30.21 in 9.0 mi Calm Calm - N/A   Clear